Wind from 330 at 9 knots

Air temperature 14.0° C
Dewpoint -1.0° C

Last reported at 2014-Apr-19 10:30 UTC.
Time now 2014-Apr-19 12:10 UTC

Location: N 59°48' E 030°16'.
View on Google Maps.

See reports from other nearby stations

Tides Stations Pressure Air Temp Water Temp Dewpoint Dewpoint depression Visibility Wind Speed Wind Dir Waves Ship positions

  
sailing weather and tide predictions

Pulkovo weather

date/time (UTC)wind fromknots sea level pressurealtimeterstation pressurevisibilityair tempwater tempwave heightnotes
2014-Apr-19 11:30 300 13 15.0
2014-Apr-19 11:00 300 11 15.0
2014-Apr-19 10:30 330 9 14.0
2014-Apr-19 10:00 320 9 14.0
2014-Apr-19 09:30 310 9 14.0
2014-Apr-19 09:00 310 9 14.0
2014-Apr-19 08:30 310 7 14.0
2014-Apr-19 08:00 300 7 13.0
2014-Apr-19 07:30 280 7 13.0
2014-Apr-19 07:00 300 5 13.0
2014-Apr-19 06:30 300 5 11.0
2014-Apr-19 06:00 270 5 10.0
2014-Apr-19 05:30 280 5 9.0
2014-Apr-19 05:00 270 5 8.0
2014-Apr-19 04:30 290 5 5.0
2014-Apr-19 04:00 3.0
2014-Apr-19 03:30 3.2 2.0
2014-Apr-19 03:00 3.2 2.0
2014-Apr-19 02:30 140 1 3.8 1.0
2014-Apr-19 02:00 3.2 1.0
2014-Apr-19 01:30 3.8 1.0
2014-Apr-19 01:00 3.2 2.0
2014-Apr-19 00:30 3.8 2.0
2014-Apr-19 00:00 270 3 3.2 2.0
2014-Apr-18 23:30 260 1 2.0
2014-Apr-18 23:00 290 1 2.0
2014-Apr-18 22:30 3.8 3.0
2014-Apr-18 22:00 4.3 4.0
2014-Apr-18 21:30 2.7 4.0 Haze.
2014-Apr-18 21:00 3.8 5.0
2014-Apr-18 20:30 1.7 5.0 Haze.
2014-Apr-18 20:00 1.2 5.0 Haze.
2014-Apr-18 19:30 4.3 6.0
2014-Apr-18 19:00 250 1 3.8 7.0
2014-Apr-18 18:30 8.0
2014-Apr-18 18:00 270 1 9.0
2014-Apr-18 17:30 280 1 10.0
2014-Apr-18 17:00 310 3 11.0
2014-Apr-18 16:30 300 5 12.0
2014-Apr-18 16:00 290 7 13.0
2014-Apr-18 15:30 290 9 13.0
2014-Apr-18 15:00 290 7 14.0
2014-Apr-18 14:30 310 9 14.0
2014-Apr-18 14:00 230 9 16.0
2014-Apr-18 13:30 230 11 16.0
2014-Apr-18 13:00 250 9 16.0
2014-Apr-18 12:30 240 9 16.0
2014-Apr-18 12:00 220 9 16.0
2014-Apr-18 11:30 200 11 15.0
2014-Apr-18 11:00 220 11 15.0
2014-Apr-18 10:30 220 11 15.0
2014-Apr-18 10:00 200 9 15.0
2014-Apr-18 09:30 220 9 gusting 19 14.0
2014-Apr-18 09:00 220 13 14.0
2014-Apr-18 08:30 220 13 13.0
2014-Apr-18 08:00 200 11 13.0
2014-Apr-18 07:30 200 9 12.0
2014-Apr-18 07:00 210 9 11.0
2014-Apr-18 06:30 200 7 10.0
2014-Apr-18 06:00 190 9 9.0
2014-Apr-18 05:30 200 9 8.0
2014-Apr-18 05:00 190 9 6.0
2014-Apr-18 04:30 190 9 5.0
2014-Apr-18 04:00 190 11 5.0
2014-Apr-18 03:30 180 7 3.0
2014-Apr-18 03:00 190 9 4.0
2014-Apr-18 02:30 200 9 4.0
2014-Apr-18 02:00 200 7 4.0
2014-Apr-18 01:30 200 7 4.0
2014-Apr-18 01:00 210 5 4.0
2014-Apr-18 00:30 200 7 5.0
2014-Apr-18 00:00 200 7 5.0
2014-Apr-17 23:30 190 7 6.0
2014-Apr-17 23:00 200 7 7.0
2014-Apr-17 22:30 200 9 7.0
2014-Apr-17 22:00 200 9 7.0
2014-Apr-17 21:30 200 7 6.0
2014-Apr-17 21:00 200 7 7.0
2014-Apr-17 20:30 190 5 7.0
2014-Apr-17 20:00 190 5 8.0
2014-Apr-17 19:30 210 7 8.0
2014-Apr-17 19:00 200 5 8.0
2014-Apr-17 18:30 200 7 8.0
2014-Apr-17 18:00 210 7 9.0
2014-Apr-17 16:30 240 13 12.0
2014-Apr-17 15:30 230 11 12.0
2014-Apr-17 15:00 240 11 12.0
2014-Apr-17 14:30 250 7 gusting 17 13.0
2014-Apr-17 14:00 210 13 12.0
2014-Apr-17 13:30 220 7 gusting 17 13.0
2014-Apr-17 13:00 210 13 gusting 23 13.0
2014-Apr-17 12:30 210 15 12.0
2014-Apr-17 12:00 220 7 gusting 17 12.0